Location: Catacaguana
(10.4120°N, 66.7591°W)
Time: 04:43:02
(UTC+00:00)

SJ-12 - Pass Details

Date: 27 May 2022
Orbit: 565 x 582 km, 97.7° (Epoch: 24 June)

Event Time Altitude Azimuth Distance (km) Brightness Sun altitude
Rises 09:02:07 0° 14° (NNE) 2,752 8.0 -14.8°
Reaches altitude 10° 09:04:15 10° 17° (NNE) 1,858 7.1 -14.3°
Maximum altitude 09:08:16 72° 101° (ESE) 600 4.1 -13.4°
Drops below altitude 10° 09:12:18 10° 186° (S) 1,868 6.2 -12.5°
Enters shadow 09:14:24 - 188° (S) 2,745 7.1 -12.1°
